Other Public Products
Issued by NWS Charleston, SC

Current Version | Previous Version | Text Only | Print | Product List | Glossary Off
Versions: 1 2 3 4 5 6 7 8 9 10 11 12 13 14 15 16 17 18 19 20 21 22 23 24 25 26 27 28 29 30 31 32 33 34 35 36 37 38 39 40 41 42 43 44 45 46 47 48 49 50
904 FPUS82 KCHS 201212 OPUCHS TEST...KCHS/KSAV Gateway Observations...TEST National Weather Service Charleston SC 700 AM EST MON NOV 20 2017 NOTE: "fair" indicates few or no clouds below 12,000 feet with no significant weather and/or obstructions to visibility. SCZ050-WAZ558-NCZ071-TXZ119-213-PAZ071-DCZ001-FLZ074-172-MI076- NYZ176-178-MAZ016-IL014-TNZ027-NJZ106-GAZ044-MD014-201300- ...Gateway Observations for Charleston International... CITY SKY/WX TMP DP RH WIND PRES REMARKS Chas Airport CLEAR 36 32 85 N6 30.22R WCI 31 6HR MIN TEMP: 36; 6HR MAX TEMP: 46; Seattle CLOUDY 48 44 86 SE7 29.54F 6HR MIN TEMP: 43; 6HR MAX TEMP: 48; 6HR PCP: 0.07; Charlotte CLEAR 27 26 96 CALM 30.23R 6HR MIN TEMP: 25; 6HR MAX TEMP: 34; Dallas DFW MOCLDY 41 32 70 S6 30.15S 6HR MIN TEMP: 41; 6HR MAX TEMP: 47; Dallas Love CLOUDY 46 31 55 S7 30.17S 6HR MIN TEMP: 43; 6HR MAX TEMP: 49; Philladelphia PTCLDY 37 21 52 W12 30.08R WCI 29 6HR MIN TEMP: 37; 6HR MAX TEMP: 40; Wash National PTCLDY 39 20 46 W9 30.15R WCI 33 6HR MIN TEMP: 39; 6HR MAX TEMP: 44; Baltimore PTCLDY 36 23 59 W9 30.12R WCI 29 6HR MIN TEMP: 34; 6HR MAX TEMP: 41; Miami PTCLDY 71 63 75 N6 30.03R 6HR MIN TEMP: 70; 6HR MAX TEMP: 73; Detroit CLOUDY 29 24 82 SW12 30.04R WCI 19 6HR MIN TEMP: 29; 6HR MAX TEMP: 31; Newark PTCLDY 36 23 59 SW13 30.00R WCI 27 6HR MIN TEMP: 36; 6HR MAX TEMP: 39; 6HR PCP: TRACE; Laguardia FLURRIES 39 27 62 W16G24 29.99R WCI 30 6HR MIN TEMP: 39; 6HR MAX TEMP: 42; 6HR PCP: TRACE; J F K CLOUDY 38 27 64 W13G21 30.01R WCI 30 6HR MIN TEMP: 37; 6HR MAX TEMP: 41; 6HR PCP: TRACE; Boston Logan PTCLDY 35 19 52 W20G36 29.82R WCI 24 6HR MIN TEMP: 35; 6HR MAX TEMP: 38; 6HR PCP: TRACE; Ft. Lauderdale CLOUDY 69 63 81 N8 30.02R 6HR MIN TEMP: 68; 6HR MAX TEMP: 71; Chicago O`Hare PTCLDY 34 23 64 SW14 29.95F WCI 25 6HR MIN TEMP: 30; 6HR MAX TEMP: 34; Chicago Midway PTCLDY 34 25 69 SW12 29.97F WCI 25 6HR MIN TEMP: 31; 6HR MAX TEMP: 34; Houston Bush CLOUDY 43 39 86 CALM 30.21S 6HR MIN TEMP: 41; 6HR MAX TEMP: 47; Houston Hobby MOCLDY 48 39 71 E5 30.20S 6HR MIN TEMP: 46; 6HR MAX TEMP: 50; Nashville CLOUDY 27 24 89 S3 30.27R 6HR MIN TEMP: 25; 6HR MAX TEMP: 30; Atlanta CLEAR 32 28 85 N7 30.20R WCI 26 6HR MIN TEMP: 32; 6HR MAX TEMP: 37; $$ GAZ044-118-TXZ119-213-NCZ071-DCZ001-MDZ014-506-PAZ021-071-NJZ106- NYZ176-178-MAZ106-OHZ011-021-055-MIZ076-KYZ091-ILZ014-INZ047- MNZ060-ONZ431-201300- ...Gateway Observations for Savannah International... CITY SKY/WX TMP DP RH WIND PRES REMARKS Savannah Arpt PTCLDY 37 35 92 N3 30.22R 6HR MIN TEMP: 35; 6HR MAX TEMP: 43; Atlanta CLEAR 32 28 85 N7 30.20R WCI 26 6HR MIN TEMP: 32; 6HR MAX TEMP: 37; Charlotte CLEAR 27 26 96 CALM 30.23R 6HR MIN TEMP: 25; 6HR MAX TEMP: 34; Dallas DFW MOCLDY 41 32 70 S6 30.15S 6HR MIN TEMP: 41; 6HR MAX TEMP: 47; Houston Bush CLOUDY 43 39 86 CALM 30.21S 6HR MIN TEMP: 41; 6HR MAX TEMP: 47; Wash National PTCLDY 39 20 46 W9 30.15R WCI 33 6HR MIN TEMP: 39; 6HR MAX TEMP: 44; Wash Dulles PTCLDY 36 20 52 NW21 30.14R WCI 25 6HR MIN TEMP: 35; 6HR MAX TEMP: 41; Baltimore PTCLDY 36 23 59 W9 30.12R WCI 29 6HR MIN TEMP: 34; 6HR MAX TEMP: 41; Philadelphia PTCLDY 37 21 52 W12 30.08R WCI 29 6HR MIN TEMP: 37; 6HR MAX TEMP: 40; Newark PTCLDY 36 23 59 SW13 30.00R WCI 27 6HR MIN TEMP: 36; 6HR MAX TEMP: 39; 6HR PCP: TRACE; Laguardia FLURRIES 39 27 62 W16G24 29.99R WCI 30 6HR MIN TEMP: 39; 6HR MAX TEMP: 42; 6HR PCP: TRACE; J F K CLOUDY 38 27 64 W13G21 30.01R WCI 30 6HR MIN TEMP: 37; 6HR MAX TEMP: 41; 6HR PCP: TRACE; Boston PTCLDY 35 19 52 W20G36 29.82R WCI 24 6HR MIN TEMP: 35; 6HR MAX TEMP: 38; 6HR PCP: TRACE; Pittsburg PTCLDY 28 21 75 SW9 30.13R WCI 19 6HR MIN TEMP: 28; 6HR MAX TEMP: 32; Akron PTCLDY 27 21 78 SW10 30.11R WCI 17 6HR MIN TEMP: 27; 6HR MAX TEMP: 31; Cleveland MOCLDY 29 24 82 SW12 30.13R WCI 19 6HR MIN TEMP: 29; 6HR MAX TEMP: 32; Cincinnati PTCLDY 23 22 96 S6 30.19S WCI 16 6HR MIN TEMP: 23; 6HR MAX TEMP: 28; Columbus CLEAR 25 23 91 SW8 30.20R WCI 16 Detroit CLOUDY 29 24 82 SW12 30.04R WCI 19 6HR MIN TEMP: 29; 6HR MAX TEMP: 31; Chicago O`Hare PTCLDY 34 23 64 SW14 29.95F WCI 25 6HR MIN TEMP: 30; 6HR MAX TEMP: 34; Minneapolis CLOUDY 29 26 89 SE7 29.68F WCI 22 6HR MIN TEMP: 28; 6HR MAX TEMP: 37; Indianapolis CLOUDY 26 21 81 S8 30.16S WCI 18 6HR MIN TEMP: 24; 6HR MAX TEMP: 26; Toronto Canada MOCLDY 32 21 64 W15G23 29.93R WCI 22 $$

USA.gov is the U.S. government's official web portal to all federal, state and local government web resources and services.